User: anonymous   Login
Location: Unspecified
(0.0000°N, 0.0000°E)
Time: 17:23:11
(UTC+02:00)
Language:

SWIFT - Orbit

View from above orbital plane
View from above orbital plane
View from above satellite
View from above satellite

Ground track
Ground track

The orbit data is extracted from the following two-line orbital elements,

1 28485U 04047A   24103.85754850  .00012298  00000-0  57644-3 0  9995
2 28485  20.5562 288.2903 0008516 149.4209 210.6724 15.17095317 64236
Epoch (UTC): 12 April 2024 20:34:52
Eccentricity: 0.0008516
inclination: 20.5562°
perigee height: 509 km
apogee height: 520 km
right ascension of ascending node: 288.2903°
argument of perigee: 149.4209°
revolutions per day: 15.17095317
mean anomaly at epoch: 210.6724°
orbit number at epoch: 6423

The dashed part of the orbit path shows where the satellite is in the earth's shadow,  

DLR